Date,TemperatureHighF,TemperatureAvgF,TemperatureLowF,DewpointHighF,DewpointAvgF,DewpointLowF,HumidityHigh,HumidityAvg,HumidityLow,PressureMaxIn,PressureMinIn,WindSpeedMaxMPH,WindSpeedAvgMPH,GustSpeedMaxMPH,PrecipitationSumIn
2013-1-1,30,19,6,26,9,-2,90,67,47,29.95,29.64,2,0,9,0.00
2013-1-2,17,8,-2,11,0,-10,79,69,59,30.23,29.85,4,0,11,0.00
2013-1-3,6,-3,-9,-7,-12,-17,68,64,54,30.24,30.13,3,0,4,0.00
2013-1-10,29,28,27,22,22,21,80,78,76,30.53,30.51,1,0,3,0.00
2013-1-11,36,30,23,32,24,18,92,77,59,30.53,30.06,2,0,7,0.06
2013-1-12,44,38,34,40,36,32,95,92,84,30.08,30.02,2,0,9,0.05
2013-1-13,45,40,35,43,38,33,96,93,86,30.08,29.86,2,0,13,0.00
2013-1-14,47,41,30,44,34,23,95,78,44,30.27,29.75,3,0,10,0.00
2013-1-15,35,31,27,27,22,18,84,70,54,30.31,30.21,2,0,6,0.00
2013-1-16,32,30,28,28,25,22,90,84,79,30.20,29.75,1,0,6,0.00
2013-1-17,32,22,8,27,12,-4,84,66,43,30.16,29.75,3,1,11,0.00
2013-1-18,21,12,1,7,-4,-9,62,50,31,30.34,30.13,3,0,13,0.01
2013-1-19,40,32,21,25,17,6,81,56,47,30.21,29.70,4,2,23,0.01
2013-1-20,42,33,17,32,19,-2,86,56,41,29.94,29.36,5,2,23,0.02
2013-1-21,21,14,8,9,3,-5,78,60,40,30.03,29.79,1,0,10,0.00
2013-1-22,19,10,4,7,0,-12,80,66,43,30.05,29.77,2,0,11,0.00
2013-1-23,4,-2,-7,-6,-15,-19,67,54,40,30.18,30.05,4,1,12,0.00
2013-1-24,12,1,-10,-8,-14,-19,68,51,33,30.34,30.14,4,1,12,0.00
2013-1-25,17,7,0,3,-6,-11,73,54,37,30.37,30.09,2,0,11,0.00
2013-1-26,15,10,3,4,-2,-8,76,60,35,30.28,30.07,3,0,11,0.00
2013-1-27,20,13,7,5,-2,-8,66,52,31,30.49,30.28,5,1,12,0.00
2013-1-28,24,18,6,21,11,-4,88,75,51,30.46,29.95,4,0,9,0.00
2013-1-29,33,28,24,31,25,21,92,86,78,30.13,29.94,2,0,5,0.01
2013-1-30,56,44,33,54,42,31,95,92,85,29.95,29.23,4,1,12,0.11
2013-1-31,54,39,24,52,30,10,95,69,46,29.51,28.75,5,2,22,0.10
2013-2-1,24,19,12,11,7,1,76,59,46,30.08,29.51,2,0,9,0.00
2013-2-2,21,16,9,12,6,1,79,65,49,30.15,30.00,3,1,14,0.00
2013-2-3,32,19,9,18,9,2,79,66,46,30.00,29.72,4,1,9,0.01
2013-2-4,29,19,10,13,4,-8,84,57,22,29.90,29.70,2,0,14,0.00
2013-2-5,26,14,3,9,-1,-7,64,51,31,30.01,29.86,3,1,10,0.00
2013-2-6,31,22,12,22,9,-8,77,58,35,30.34,29.84,3,1,15,0.00
2013-2-7,20,12,5,0,-6,-11,58,46,31,30.57,30.34,2,0,12,0.00
2013-2-8,26,18,12,23,12,0,88,77,57,30.40,29.88,2,0,9,0.00
2013-2-9,21,12,5,15,2,-4,83,64,45,30.34,29.89,3,1,17,0.00
2013-2-10,25,12,-3,6,0,-10,76,60,34,30.48,30.24,3,1,11,0.01
2013-2-11,38,30,13,35,22,5,92,75,46,30.23,29.57,2,0,9,0.00
2013-2-12,38,35,32,30,27,23,81,72,60,29.81,29.56,2,0,9,0.00
2013-2-13,40,33,28,25,23,20,79,67,49,29.81,29.71,1,0,5,0.00
2013-2-14,37,32,29,26,22,18,84,69,49,29.91,29.70,1,0,5,0.00
2013-2-15,46,36,32,30,25,20,82,65,40,29.92,29.81,3,1,11,0.00
2013-2-16,35,28,20,23,13,2,78,55,36,29.97,29.88,2,0,11,0.00
2013-2-17,19,14,11,5,2,-2,73,58,46,29.87,29.66,3,1,16,0.00
2013-2-18,28,16,7,2,-3,-9,63,44,20,30.13,29.85,5,1,14,0.00
2013-2-19,45,30,15,30,15,-1,90,57,28,30.12,29.56,3,0,10,0.11
2013-2-20,33,28,22,30,23,17,91,82,68,29.74,29.55,0,0,4,0.06
2013-2-21,22,18,10,16,9,2,81,70,57,30.36,29.74,4,1,13,0.00
2013-2-22,36,27,14,24,20,10,85,75,58,30.41,30.19,2,0,9,0.12
2013-2-23,37,34,29,31,28,23,92,82,66,30.19,29.86,2,0,10,0.07
2013-2-24,36,33,31,34,30,28,93,91,86,29.92,29.74,1,0,6,0.07
2013-2-25,38,33,31,31,29,28,91,86,73,30.20,29.92,1,0,4,0.02
2013-2-26,41,35,30,33,29,25,92,80,57,30.29,30.03,4,0,14,0.00
2013-2-27,39,36,34,35,29,23,89,75,60,30.04,29.59,5,2,19,0.14
2013-2-28,46,37,32,34,31,29,91,79,57,29.59,29.51,1,0,6,0.01
2013-3-1,36,33,31,30,27,24,90,80,63,29.74,29.57,2,0,14,0.00
2013-3-2,33,29,24,27,24,20,89,82,68,29.75,29.70,1,0,9,0.03
2013-3-3,32,26,23,24,20,18,86,78,67,29.73,29.65,3,0,10,0.06
2013-3-4,30,26,24,22,19,16,83,74,58,29.87,29.68,4,1,13,0.03
2013-3-5,37,29,25,26,22,19,84,74,60,30.08,29.87,3,0,9,0.05
2013-3-6,43,34,24,30,25,20,87,71,51,30.14,30.05,4,0,12,0.01
2013-3-7,38,33,29,25,22,18,80,63,51,30.16,30.11,3,1,11,0.00
2013-3-8,40,32,27,26,23,21,83,72,53,30.30,30.11,2,0,12,0.01
2013-3-9,50,21,23,29,-34,-100,81,28,35,30.33,30.25,3,-464,11,0.00
2013-3-10,57,33,25,28,-14,-100,88,29,23,30.29,30.09,2,-307,11,0.00
2013-3-11,49,44,39,32,29,25,67,55,44,30.15,29.92,2,0,10,0.00
2013-3-12,52,47,36,49,42,29,92,84,55,29.94,29.62,2,0,14,1.05
2013-3-13,44,36,29,36,32,26,94,85,62,29.80,29.71,1,0,4,0.02
2013-3-14,31,25,18,28,15,3,90,67,50,29.90,29.70,3,1,10,0.01
2013-3-15,34,24,14,28,13,2,89,64,41,29.91,29.55,3,1,9,0.00
2013-3-16,32,24,17,21,13,8,81,63,42,29.90,29.71,3,0,6,0.02
2013-3-17,27,19,11,14,6,0,77,58,37,30.33,29.89,4,1,14,0.00
2013-3-18,36,23,8,22,6,-2,73,49,24,30.43,30.09,5,1,10,0.00
2013-3-19,34,31,28,29,26,21,89,82,68,30.08,29.69,1,0,8,0.08
2013-3-20,34,29,24,27,22,15,89,76,60,29.71,29.62,2,0,4,0.02
2013-3-21,38,29,21,21,16,12,76,61,36,29.71,29.60,2,0,6,0.04
2013-3-22,41,28,19,24,18,12,84,67,40,29.74,29.62,3,0,6,0.00
2013-3-23,38,32,27,23,20,16,82,62,41,29.80,29.66,2,0,11,0.02
2013-3-24,40,34,27,27,22,20,77,63,47,29.84,29.77,2,0,6,0.00
2013-3-25,47,34,23,28,24,18,82,67,43,29.78,29.53,5,1,9,0.00
2013-3-26,47,36,30,27,24,17,80,62,33,29.78,29.57,3,0,10,0.00
2013-3-27,50,39,28,31,26,22,81,62,38,29.91,29.76,4,0,12,0.00
2013-3-28,51,40,34,36,32,30,92,75,48,30.03,29.90,3,0,12,0.01
2013-3-29,49,41,35,37,32,27,88,70,49,30.06,29.99,2,0,7,0.01
2013-3-30,56,40,28,32,22,11,89,53,20,30.09,30.01,6,1,11,0.00
2013-3-31,58,43,25,38,24,18,84,51,24,30.07,29.69,4,1,13,0.03
2013-4-1,46,39,28,41,29,9,92,69,30,29.76,29.48,4,1,10,0.06
2013-4-2,38,30,23,16,10,5,64,45,27,29.88,29.76,3,1,10,0.00
2013-4-3,45,34,24,14,9,3,57,37,19,30.17,29.87,3,1,10,0.00
2013-4-4,53,38,22,20,16,12,76,44,24,30.25,29.88,4,1,11,0.00
2013-4-5,51,41,32,28,21,12,59,44,28,29.95,29.74,3,1,9,0.00
2013-4-6,42,32,24,16,7,1,58,36,19,30.26,29.95,4,1,15,0.00
2013-4-7,62,47,30,35,22,14,58,39,22,30.22,29.78,5,2,12,0.00
2013-4-8,59,48,41,36,32,26,73,54,31,30.10,29.84,3,0,10,0.00
2013-4-9,57,48,42,47,40,36,94,75,49,29.99,29.75,4,0,10,0.05
2013-4-10,52,46,42,44,42,39,93,87,68,29.98,29.88,2,0,5,0.27
2013-4-11,42,37,32,40,24,17,92,61,43,30.16,29.89,2,0,9,0.01
2013-4-12,36,34,32,32,28,20,92,79,57,30.14,29.76,4,1,18,0.22
2013-4-13,54,41,34,40,34,32,93,78,53,29.88,29.74,2,0,6,0.01
2013-4-14,47,40,33,38,33,29,89,77,57,30.20,29.85,3,0,6,0.07
2013-4-15,64,46,29,43,31,24,88,60,27,30.33,30.16,6,1,9,0.00
2013-4-16,57,53,48,52,41,31,92,66,47,30.20,29.90,4,2,11,0.10
2013-4-17,58,48,37,42,32,26,85,56,31,30.32,30.05,4,1,11,0.00
2013-4-18,67,50,34,42,33,25,81,55,31,30.33,29.90,4,1,12,0.01
2013-4-19,77,64,46,59,52,42,90,65,45,29.90,29.39,5,2,13,0.74
2013-4-20,56,44,35,44,29,18,91,58,28,30.24,29.63,4,1,11,0.02
2013-4-21,47,37,29,20,15,8,60,41,22,30.66,30.25,5,1,15,0.00
2013-4-22,61,43,24,27,18,12,80,43,16,30.69,30.47,8,1,13,0.00
2013-4-23,58,44,29,36,28,19,79,55,33,30.49,30.11,3,1,8,0.00
2013-4-24,76,56,35,53,39,31,89,60,25,30.11,29.59,3,1,8,0.04
2013-4-25,59,49,39,52,30,19,87,51,24,30.25,29.59,6,1,10,0.06
2013-4-26,59,45,32,35,30,25,81,57,34,30.41,30.24,4,1,9,0.00
2013-4-27,65,49,32,37,27,7,87,49,14,30.41,30.25,6,1,9,0.00
2013-4-28,76,56,34,37,31,27,83,44,17,30.27,30.06,5,0,9,0.00
2013-4-29,69,58,49,44,39,33,64,49,31,30.16,30.09,2,0,6,0.00
2013-4-30,75,62,53,46,42,38,67,50,31,30.25,30.16,3,0,8,0.00
2013-5-1,83,65,48,46,39,32,70,41,21,30.39,30.22,4,0,7,0.00
2013-5-2,85,67,48,45,39,31,65,38,20,30.41,30.24,5,1,11,0.00
2013-5-3,79,62,49,41,35,29,58,39,18,30.44,30.27,2,0,6,0.00
2013-5-4,80,64,49,46,41,33,70,46,20,30.30,30.13,3,0,6,0.00
2013-5-5,83,64,48,41,36,30,64,38,17,30.21,30.05,1,0,6,0.00
2013-5-6,83,64,49,44,33,17,63,35,11,30.16,30.00,1,0,6,0.00
2013-5-7,89,68,50,53,40,25,77,42,14,30.09,29.97,3,0,6,0.00
2013-5-8,85,64,56,60,53,41,92,69,32,30.10,29.97,3,0,5,0.24
2013-5-9,74,64,55,62,56,50,94,77,47,29.97,29.80,2,0,5,0.22
2013-5-10,75,62,54,60,55,50,90,78,53,29.94,29.75,2,0,5,0.00
2013-5-11,72,63,56,63,57,47,93,81,59,29.75,29.56,1,0,7,0.27
2013-5-12,63,53,42,49,40,22,86,63,27,29.75,29.58,2,0,10,0.00
2013-5-13,52,46,40,36,30,25,79,55,38,30.01,29.74,2,0,7,0.00
2013-5-14,60,47,35,36,30,22,85,56,27,30.07,29.95,3,0,6,0.00
2013-5-15,68,50,33,51,38,27,86,67,29,30.00,29.56,3,0,7,0.06
2013-5-16,78,59,46,50,42,32,89,58,20,29.85,29.56,2,0,13,0.01
2013-5-17,68,56,48,43,39,33,81,55,30,30.17,29.85,2,0,10,0.00
2013-5-18,85,60,41,46,38,27,84,51,20,30.26,30.15,2,0,5,0.00
2013-5-19,72,58,52,55,50,40,92,74,49,30.23,30.08,1,0,7,0.13
2013-5-20,72,62,56,62,57,54,93,85,67,30.07,29.92,1,0,6,0.05
2013-5-21,78,64,58,68,59,55,94,83,64,29.93,29.76,2,0,8,0.48
2013-5-22,80,70,58,70,64,56,94,80,65,29.83,29.68,1,0,9,0.25
2013-5-23,78,71,62,66,63,59,92,78,60,29.73,29.65,1,0,10,0.34
2013-5-24,62,49,44,60,47,42,94,92,91,29.99,29.64,2,0,10,0.55
2013-5-25,44,42,39,43,40,37,94,92,91,29.97,29.87,3,1,9,0.68
2013-5-26,48,43,39,45,40,37,93,90,83,30.07,29.82,1,0,6,0.32
2013-5-27,69,52,37,49,39,32,95,66,27,30.13,30.04,3,0,7,0.27
2013-5-28,77,59,42,50,43,36,83,58,30,30.19,30.04,3,0,5,0.00
2013-5-29,72,61,55,65,58,48,95,87,70,30.06,29.88,1,0,5,0.37
2013-5-30,89,72,59,69,63,57,95,75,38,30.03,29.94,1,0,4,0.01
2013-5-31,93,76,61,70,64,58,91,67,43,30.03,29.85,1,0,5,0.00
2013-6-1,91,78,66,70,65,62,87,67,44,29.90,29.75,1,0,7,0.00
2013-6-2,90,74,63,71,66,60,91,77,50,29.78,29.61,1,0,7,0.81
2013-6-3,73,64,53,61,54,40,91,72,46,29.83,29.72,1,0,6,0.00
2013-6-4,66,54,46,46,43,39,85,66,44,30.08,29.83,1,0,4,0.00
2013-6-5,74,60,47,48,43,31,83,57,25,30.16,30.06,1,0,4,0.00
2013-6-6,71,58,52,56,50,43,92,74,47,30.12,30.02,1,0,6,0.03
2013-6-7,58,55,51,55,52,49,94,92,86,30.02,29.83,1,0,5,0.31
2013-6-8,61,57,53,58,55,52,95,91,83,29.98,29.72,0,0,3,0.03
2013-6-9,79,64,56,64,56,50,95,79,39,30.14,29.97,2,0,5,0.01
2013-6-10,76,63,54,63,56,49,92,77,54,30.16,29.91,2,0,6,0.02
2013-6-11,63,58,56,59,56,54,94,92,86,29.90,29.52,1,0,10,0.01
2013-6-12,66,59,54,57,54,51,95,85,61,29.81,29.56,1,0,5,0.01
2013-6-13,68,60,53,59,54,48,89,82,61,29.79,29.64,2,0,3,0.01
2013-6-14,76,64,54,60,53,49,90,70,42,29.82,29.65,1,0,6,0.30
2013-6-15,79,63,48,52,46,38,82,58,27,29.93,29.82,2,0,5,0.00
2013-6-16,70,61,54,60,53,45,92,77,54,29.88,29.66,1,0,4,0.16
2013-6-17,76,63,54,65,58,52,95,85,52,29.90,29.73,1,0,4,0.17
2013-6-18,71,59,52,56,51,45,90,75,44,29.95,29.88,1,0,4,0.03
2013-6-19,70,58,46,49,44,38,87,63,36,30.14,29.95,2,0,7,0.00
2013-6-20,81,63,46,54,47,41,81,60,27,30.21,30.13,2,0,4,0.00
2013-6-21,87,69,54,61,53,47,81,59,31,30.20,30.14,1,0,5,0.00
2013-6-22,82,69,60,68,61,53,94,78,55,30.15,30.03,1,0,5,0.36
2013-6-23,88,74,66,76,68,64,94,84,59,30.04,29.90,1,0,8,0.20
2013-6-24,92,75,67,74,68,63,93,81,52,29.94,29.83,2,0,6,0.96
2013-6-25,88,72,66,74,68,64,95,87,59,29.89,29.70,1,0,6,0.21
2013-6-26,80,70,66,71,67,64,95,90,68,29.76,29.69,0,0,2,0.62
2013-6-27,89,74,66,72,67,62,95,80,47,29.75,29.65,1,0,3,0.08
2013-6-28,74,53,62,68,29,-100,95,70,74,29.66,29.33,7,-209,13,0.13
2013-6-29,82,69,63,69,65,61,95,87,58,29.62,29.44,1,0,9,0.60
2013-6-30,86,73,62,70,66,61,96,79,49,29.88,29.62,1,0,5,0.14
2013-7-1,72,68,64,69,66,62,94,91,85,30.03,29.88,0,0,4,0.40
2013-7-2,83,68,60,73,65,58,96,90,67,30.08,30.00,0,0,3,0.23
2013-7-3,90,76,69,75,71,67,95,87,58,30.11,30.05,1,0,6,0.39
2013-7-4,92,77,71,76,72,69,95,86,57,30.13,30.02,1,0,6,0.40
2013-7-5,91,76,69,78,71,67,93,86,58,30.10,29.99,1,0,6,0.15
2013-7-6,88,77,69,73,69,64,93,79,50,30.03,29.94,0,0,3,0.00
2013-7-7,88,75,66,74,67,61,92,79,54,29.99,29.88,1,0,4,0.22
2013-7-8,81,73,69,72,69,66,95,88,66,30.00,29.88,0,0,4,0.11
2013-7-9,88,75,66,73,68,64,94,80,56,30.03,29.93,0,0,4,0.00
2013-7-10,81,75,72,73,70,66,91,84,70,29.92,29.68,1,0,7,0.16
2013-7-11,81,73,63,71,65,56,93,78,51,29.97,29.68,1,0,5,0.21
2013-7-12,81,69,59,64,59,55,89,72,49,30.15,29.97,1,0,6,0.00
2013-7-13,83,72,60,69,63,57,92,77,57,30.24,30.16,0,0,3,0.00
2013-7-14,90,78,69,74,69,65,92,76,54,30.27,30.17,0,0,2,0.00
2013-7-15,94,80,69,74,68,61,91,70,36,30.19,30.10,0,0,5,0.00
2013-7-16,91,79,68,72,66,63,86,67,42,30.18,30.12,1,0,5,0.00
2013-7-17,97,81,68,75,70,64,88,71,47,30.14,29.92,0,0,4,0.00
2013-7-24,58,56,53,49,48,47,84,75,69,30.00,29.92,1,0,4,0.00
2013-7-25,73,60,46,55,50,43,92,72,50,30.09,30.01,1,0,3,0.00
2013-7-26,58,57,57,53,53,52,85,84,84,30.06,30.05,1,0,3,0.00
2013-8-8,69,68,67,67,66,64,94,93,90,29.95,29.91,2,0,3,1.00
2013-8-9,76,72,68,73,70,66,95,92,83,29.90,29.72,0,0,2,0.18
2013-8-10,78,68,58,68,56,47,95,71,36,30.00,29.76,1,0,4,0.00
2013-8-11,82,66,54,59,55,50,86,69,41,30.04,29.94,1,0,1,0.00
2013-8-12,82,68,56,64,58,51,88,71,43,29.98,29.84,1,0,3,0.00
2013-8-13,74,66,63,66,62,57,92,86,72,29.84,29.63,1,0,3,0.17
2013-8-14,67,60,53,62,54,49,93,82,67,29.93,29.64,1,0,2,0.05
2013-8-15,77,62,48,58,51,45,94,72,40,30.05,29.93,1,0,4,0.00
2013-8-16,82,64,54,62,51,-100,85,67,40,30.15,30.04,0,-25,4,0.00
2013-8-17,80,67,57,61,56,52,87,70,44,30.25,30.16,1,0,4,0.00
2013-8-18,80,67,56,64,58,53,92,75,48,30.24,30.04,1,0,3,0.00
2013-8-19,86,70,58,66,59,54,87,70,42,30.04,29.92,1,0,3,0.00
2013-8-20,89,72,60,66,61,56,88,71,41,30.05,29.95,0,0,2,0.00
2013-8-21,88,74,62,69,63,58,86,71,50,30.10,29.95,1,0,2,0.00
2013-8-22,88,73,63,70,65,59,92,77,50,29.97,29.76,1,0,4,0.72
2013-8-23,73,64,56,64,56,49,94,77,46,30.13,29.84,3,0,5,0.01
2013-8-24,82,63,49,58,50,43,89,67,28,30.30,30.14,3,0,5,0.00
2013-8-25,82,66,51,61,54,47,90,68,36,30.34,30.08,1,0,6,0.02
2013-8-26,73,68,63,67,63,60,92,85,77,30.09,29.83,1,0,5,0.29
2013-8-27,85,73,68,71,68,66,94,84,55,29.87,29.82,0,0,3,0.01
2013-8-28,88,74,64,71,67,62,93,80,52,29.90,29.81,0,0,3,0.00
2013-8-29,85,72,64,67,64,61,90,78,49,30.01,29.90,1,0,3,0.00
2013-8-30,88,74,63,69,66,60,93,76,52,29.96,29.72,0,0,3,0.00
2013-8-31,74,71,68,71,68,66,94,91,80,29.76,29.70,0,0,1,0.24
2013-9-1,87,74,68,72,68,66,95,83,55,29.82,29.75,0,0,1,0.00
2013-9-2,80,72,64,73,67,62,94,87,70,29.79,29.62,2,0,3,0.35
2013-9-3,75,65,62,65,61,58,95,86,69,29.76,29.65,0,0,3,0.01
2013-9-4,79,66,57,61,58,53,93,76,46,29.87,29.76,1,0,6,0.00
2013-9-5,66,58,47,58,47,37,92,70,38,30.14,29.83,1,0,6,0.08
2013-9-6,73,56,42,48,43,37,88,65,31,30.23,30.01,1,0,5,0.00
2013-9-7,69,60,54,56,51,46,84,71,55,30.02,29.80,1,0,6,0.00
2013-9-8,63,57,46,55,46,38,92,69,45,30.08,29.73,2,0,7,0.14
2013-9-9,70,56,42,51,44,38,88,68,40,30.16,30.01,1,0,10,0.00
2013-9-10,77,66,59,69,61,50,95,85,70,30.03,29.92,1,0,7,0.81
2013-9-11,92,78,71,77,71,66,93,83,59,29.97,29.84,3,0,7,0.35
2013-9-12,80,72,67,71,67,65,93,87,71,29.88,29.57,1,0,6,0.43
2013-9-13,68,58,52,66,56,50,94,93,90,29.84,29.57,1,0,6,0.29
2013-9-14,63,54,48,53,50,45,95,86,61,30.05,29.83,1,0,4,0.02
2013-9-15,70,56,44,57,49,42,92,79,54,30.11,29.98,1,0,5,0.00
2013-9-16,56,50,40,53,45,36,94,83,57,30.30,29.97,1,0,6,0.32
2013-9-17,66,49,36,46,40,34,91,74,40,30.44,30.29,1,0,4,0.00
2013-9-18,75,55,41,52,46,38,95,73,35,30.29,30.09,0,0,4,0.00
2013-9-19,80,61,48,58,51,45,91,71,36,30.11,29.98,0,0,4,0.00
2013-9-20,84,64,49,62,54,47,93,74,37,30.04,29.85,1,0,7,0.00
2013-9-21,77,70,63,61,56,47,90,64,37,29.87,29.53,2,1,13,0.09
2013-9-22,64,56,47,60,51,41,94,83,67,29.87,29.52,1,0,5,0.56
2013-9-23,52,46,41,43,40,37,91,78,63,30.03,29.87,1,0,6,0.00
2013-9-24,63,52,46,46,41,38,86,67,45,30.02,29.86,1,0,6,0.00
2013-9-25,67,53,42,51,45,39,91,76,51,29.97,29.87,1,0,7,0.00
2013-9-26,64,52,42,51,46,39,90,79,58,30.13,29.97,2,0,5,0.00
2013-9-27,68,56,50,53,50,47,89,80,53,30.26,30.13,3,0,6,0.00
2013-9-28,76,56,44,58,49,-100,92,78,46,30.32,30.19,2,-6,9,0.00
2013-9-29,78,60,46,58,51,44,95,75,44,30.19,30.01,0,0,2,0.00
2013-9-30,77,60,49,57,51,46,91,75,43,30.06,29.93,2,0,2,0.00
2013-10-1,81,61,46,59,53,44,92,76,43,29.97,29.83,1,0,2,0.00
2013-10-2,82,63,54,63,55,50,92,76,43,29.94,29.78,1,0,2,0.00
2013-10-3,77,60,49,55,49,44,88,70,36,30.07,29.93,1,0,4,0.00
2013-10-4,63,56,48,56,51,45,89,83,71,30.07,30.00,1,0,3,0.00
2013-10-5,66,57,54,54,51,49,93,81,60,30.10,30.03,0,0,2,0.02
2013-10-6,59,55,52,55,51,47,95,87,74,30.10,29.96,1,0,5,0.20
2013-10-7,79,63,53,64,57,50,93,84,52,29.96,29.50,2,0,6,0.64
2013-10-8,59,50,43,50,41,36,92,73,47,30.34,29.85,5,1,6,0.00
2013-10-9,68,50,37,45,39,34,92,68,33,30.42,30.30,2,0,2,0.00
2013-10-10,67,42,41,50,13,-100,86,55,43,30.30,30.14,1,-198,5,0.00
2013-10-11,71,18,58,52,-61,-100,64,13,32,30.14,30.07,0,-735,1,0.00
2013-10-12,78,19,54,55,-61,-100,93,13,35,30.29,30.12,1,-740,2,0.00
2013-10-13,73,33,50,48,-20,-100,83,33,38,30.36,30.24,1,-457,4,0.00
2013-10-14,57,55,50,54,51,46,94,86,74,30.28,30.20,1,0,5,0.11
2013-10-15,65,56,51,57,53,49,95,89,70,30.24,30.04,2,0,4,0.00
2013-10-16,68,58,54,54,52,49,91,79,56,30.04,29.77,1,0,4,0.01
2013-10-17,69,59,53,57,51,46,94,76,47,29.79,29.63,3,0,7,0.18
2013-10-18,67,54,47,54,47,37,95,78,47,29.87,29.56,1,0,6,0.63
2013-10-19,63,53,43,48,42,38,89,69,48,29.88,29.60,1,0,4,0.09
2013-10-20,58,50,41,48,39,32,90,67,38,29.97,29.59,2,0,6,0.00
2013-10-21,64,51,39,43,38,34,86,64,44,30.03,29.83,1,0,5,0.00
2013-10-22,57,50,39,48,39,29,86,66,48,29.82,29.64,2,0,5,0.06
2013-10-23,54,45,38,37,34,29,83,66,41,29.75,29.57,1,0,4,0.00
2013-10-24,45,40,32,38,34,28,92,80,62,29.84,29.63,2,0,5,0.03
2013-10-25,46,41,37,38,31,25,91,69,46,30.10,29.85,2,0,5,0.01
2013-10-26,49,42,34,35,31,28,83,67,45,30.09,29.76,4,1,12,0.00
2013-10-27,48,43,35,36,32,27,83,65,50,30.00,29.72,2,0,10,0.00
2013-10-28,46,39,29,40,30,19,87,70,41,30.36,29.98,2,0,12,0.05
2013-10-29,48,34,24,27,22,19,84,65,36,30.46,30.32,4,0,9,0.00
2013-10-30,47,38,30,34,31,23,85,74,57,30.31,30.14,0,0,5,0.01
2013-10-31,60,46,35,57,43,31,95,90,81,30.18,29.56,2,0,12,0.25
2013-11-1,68,60,54,60,52,40,92,76,42,29.59,29.22,3,2,17,0.29
2013-11-2,54,46,37,45,40,34,91,81,63,29.85,29.57,1,0,7,0.07
2013-11-3,42,33,26,34,20,14,88,61,35,30.45,29.85,2,0,7,0.00
2013-11-4,42,30,21,20,18,14,80,62,33,30.66,30.46,3,0,8,0.00
2013-11-5,50,39,26,34,26,18,80,62,42,30.63,30.39,3,0,5,0.00
2013-11-6,58,51,42,44,39,33,72,63,53,30.38,29.85,3,1,7,0.00
2013-11-7,56,47,34,51,41,24,92,80,59,29.85,29.67,2,1,8,0.26
2013-11-8,43,36,31,30,26,21,87,68,49,30.08,29.82,2,0,8,0.00
2013-11-9,44,37,29,33,25,20,85,62,40,30.17,29.90,2,0,3,0.02
2013-11-10,45,41,37,37,35,29,89,79,68,29.89,29.66,2,0,5,0.06
2013-11-11,43,39,33,32,28,24,81,63,51,30.07,29.81,2,1,9,0.00
2013-11-12,34,28,24,30,18,13,87,65,55,30.24,29.88,2,0,6,0.02
2013-11-13,34,27,19,19,13,9,67,58,38,30.31,30.02,3,0,6,0.01
2013-11-14,44,37,31,29,22,18,70,55,44,30.02,29.98,3,1,10,0.01
2013-11-15,53,44,38,25,19,14,53,39,25,30.13,30.02,3,1,6,0.00
2013-11-16,59,46,38,30,27,23,68,49,28,30.24,30.12,2,0,5,0.00
2013-11-17,60,50,37,50,41,29,78,70,64,30.21,29.60,3,1,14,0.00
2013-11-18,63,52,41,57,41,27,88,66,43,29.63,29.32,5,1,6,0.23
2013-11-19,41,33,29,28,18,14,74,54,48,30.35,29.63,2,1,10,0.00
2013-11-20,39,29,23,19,17,15,77,61,39,30.62,30.35,4,1,8,0.00
2013-11-21,44,32,19,27,18,10,81,57,27,30.61,30.32,2,0,5,0.00
2013-11-22,49,41,39,44,37,27,92,84,62,30.31,29.78,2,0,3,0.08
2013-11-23,44,32,22,40,22,8,88,65,48,29.96,29.75,3,0,8,0.00
2013-11-24,23,18,13,10,1,-6,62,47,35,30.25,29.84,3,1,11,0.00
2013-11-25,31,20,8,13,4,-6,66,49,29,30.38,30.13,3,1,9,0.00
2013-11-26,35,32,30,30,23,12,89,69,44,30.22,29.92,2,1,5,0.00
2013-11-27,38,34,30,36,32,27,94,92,88,29.93,29.34,2,0,6,0.86
2013-11-28,30,22,13,27,12,5,88,67,44,30.41,29.50,2,0,4,0.05
2013-11-29,26,16,10,12,7,3,76,66,46,30.75,30.41,5,1,6,0.01
2013-11-30,30,20,9,16,8,2,76,61,42,30.77,30.30,5,1,6,0.00
2013-12-1,39,33,29,30,26,16,89,74,56,30.29,29.99,2,0,4,0.01
2013-12-2,38,34,30,33,30,27,90,85,76,30.00,29.85,0,0,0,0.00
2013-12-3,46,36,30,35,30,26,91,79,64,29.97,29.86,1,0,4,0.00
2013-12-4,41,33,27,29,26,22,85,74,57,30.13,29.96,1,0,4,0.00
2013-12-5,54,43,28,50,38,24,89,84,80,30.10,29.78,2,0,5,0.00
2013-12-6,53,40,34,49,35,26,92,84,69,30.12,29.83,2,0,4,0.58
2013-12-7,35,30,26,29,18,11,86,61,41,30.43,30.08,2,0,9,0.00
2013-12-8,29,26,24,17,12,8,65,55,45,30.55,30.42,2,0,7,0.00
2013-12-9,36,18,27,32,-31,-100,87,42,51,30.42,29.83,3,-441,10,0.01
2013-12-10,34,29,20,30,20,10,85,68,53,29.91,29.76,2,0,5,0.00
2013-12-11,30,22,16,18,13,8,76,68,54,30.14,29.92,2,0,10,0.00
2013-12-12,18,15,7,8,2,-4,69,57,39,30.28,29.94,3,1,7,0.00
2013-12-13,19,13,3,13,4,-8,82,64,50,30.43,29.88,2,1,13,0.00
2013-12-14,11,6,-1,6,-5,-10,80,62,45,30.59,30.09,3,0,7,0.00
2013-12-15,25,20,11,20,16,6,86,83,77,30.09,29.51,2,0,6,0.00
2013-12-16,20,13,1,13,2,-8,84,65,44,30.23,29.67,4,0,9,0.00
2013-12-17,18,6,-7,13,-1,-14,82,72,60,30.24,29.98,6,1,10,0.00
2013-12-18,27,21,11,21,15,6,83,78,66,29.98,29.90,0,0,2,0.00
2013-12-19,36,31,26,29,23,20,84,73,59,30.03,29.87,3,1,9,0.01
2013-12-20,37,32,24,33,28,20,88,84,78,30.03,29.83,1,0,3,0.13
2013-12-21,47,34,25,43,31,22,93,88,81,29.94,29.75,2,0,6,0.37
2013-12-22,32,28,24,29,26,22,92,90,89,29.94,29.71,0,0,0,0.00
2013-12-23,37,32,29,34,30,26,94,92,82,30.14,29.93,0,0,2,0.00
2013-12-24,29,19,8,26,14,-100,89,80,74,30.32,30.12,1,0,7,0.00
2013-12-25,15,9,4,10,2,-4,82,74,64,30.54,30.32,1,0,6,0.00
2013-12-26,27,23,15,24,19,10,87,84,79,30.37,30.06,0,0,5,0.00
2013-12-27,32,26,22,24,21,18,88,82,71,30.19,30.12,1,0,4,0.00
2013-12-28,36,32,22,31,26,18,88,79,73,30.12,29.94,3,0,9,0.02
2013-12-29,40,34,28,34,30,26,92,85,67,29.95,29.55,2,0,4,0.49
2013-12-30,36,22,9,34,14,-4,92,70,50,30.19,29.54,4,1,12,0.03
2013-12-31,16,11,7,11,2,-5,84,66,54,30.19,29.98,2,0,3,0.00
2014-1-1,20,13,1,11,2,-12,83,62,45,30.44,30.11,1,0,3,0.00
2014-1-2,1,-5,-10,-11,-14,-18,70,65,54,30.43,30.03,1,0,4,0.00